Regional Weather Roundup
Issued by NWS

Home | Current Version | Previous Version | Graphics & Text | Print | Product List | Glossary Off
Versions: 1 2 3 4 5 6 7 8 9 10 11 12 13 14 15 16 17 18 19 20 21 22 23 24 25 26 27 28 29 30 31 32 33 34 35 36 37 38 39 40 41 42 43 44 45 46 47 48 49 50

000
ASUS43 KFSD 040302
RWRSD

WEATHER ROUNDUP FOR SOUTH DAKOTA
NATIONAL WEATHER SERVICE SIOUX FALLS SD
1000 PM CDT THU SEP 03 2015

NOTE: "FAIR" INDICATES FEW OR NO CLOUDS BELOW 12,000 FEET WITH NO
SIGNIFICANT WEATHER AND/OR OBSTRUCTIONS TO VISIBILITY.


SDZ001>005-009-010-012>017-040400-
NORTHWEST AND NORTH CENTRAL SOUTH DAKOTA

CITY           SKY/WX    TMP DP  RH WIND       PRES   REMARKS
BUFFALO          N/A     75  51  43 NE8       29.68F
MOBRIDGE       MOCLDY    81  71  71 SE13      29.72R
$$

SDZ012>016-024>037-041>051-057-063-072>074-040400-
SOUTHWEST AND SOUTH CENTRAL SOUTH DAKOTA

CITY           SKY/WX    TMP DP  RH WIND       PRES   REMARKS
RAPID CTY ARPT MOCLDY    81  51  35 S24G36    29.78R
PIERRE         CLOUDY    81  70  69 SE14      29.70R
CUSTER         MOCLDY    75  43  31 S8        29.97R
PHILIP         LGT RAIN  80  56  43 S3        29.72R
PINE RIDGE     CLOUDY    79  49  34 S10G17    29.83S
WINNER         FAIR      80  69  69 SE12      29.74R
$$

SDZ004>011-016>023-039-040-040400-
NORTHEAST SOUTH DAKOTA

CITY           SKY/WX    TMP DP  RH WIND       PRES   REMARKS
ABERDEEN       MOCLDY    78  72  81 SE12      29.77R
WATERTOWN      CLEAR     77  71  82 SE7       29.83R
BROOKINGS      PTCLDY    75  72  88 SE10      29.85S
$$

SDZ017-020-022-023-036>040-048>070-040400-
SOUTHEAST SOUTH DAKOTA

CITY           SKY/WX    TMP DP  RH WIND       PRES   REMARKS
SIOUX FALLS    MOCLDY    80  72  76 SE9       29.82R
HURON          MOCLDY    78  72  81 SE10      29.76R
CHAMBERLAIN    CLOUDY    78  71  80 SE9       29.74R
MITCHELL       MOCLDY    77  73  87 SE8       29.76S
YANKTON        CLOUDY    75  72  88 E6        29.77R
$$

ABBREVIATIONS USED IN REMARKS
   TC - TEMPERATURE IN CELSIUS
  WCI - WIND CHILL INDEX
   HX - HEAT INDEX
  VSB - VISIBILITY




USA.gov is the U.S. government's official web portal to all federal, state and local government web resources and services.